User: anonymous   Login
Location: Melbourne
(37.8170°S, 144.9670°E)
Time: 13:12:01
(UTC+10:00)
Language:

CZ-3 R/B - Orbit

View from above orbital plane
View from above orbital plane
View from above satellite
View from above satellite

Ground track
Ground track

The orbit data is extracted from the following two-line orbital elements,

1 29517U 06048B   18147.75021519  .00003791  00000-0  33460-3 0  9992
2 29517  28.4107 338.6263 4308581  47.4610 341.7402  6.85224846191120
Epoch (UTC): 27 May 2018 18:00:18
Eccentricity: 0.4308581
inclination: 28.4107°
perigee height: 286 km
apogee height: 10375 km
right ascension of ascending node: 338.6263°
argument of perigee: 47.4610°
revolutions per day: 6.85224846
mean anomaly at epoch: 341.7402°
orbit number at epoch: 19112

The dashed part of the orbit path shows where the satellite is in the earth's shadow,  

DLR